STARLINK-31662 (59584 NORAD) Tracking and Keplerian Element Data

This shows tracking and keplerian element data for the satellite.

Feedback or suggestion? Click here.




ElementValue
Catalog59584
NameSTARLINK-31662
Epoch Orbit829
Epoch Day160.08314446
Epoch Year2024
RAAN54.0106
Inclination43.0012
Eccentricity0.0002021
Argument of Perigee271.5405
Mean Anonmoly88.522
Mean Motion15.40710798
Decay Rate5.699E-05
L11 59584U 24076W 24160.08314446 .00005699 00000+0 14353-3 0 9990
L22 59584 43.0012 54.0106 0002021 271.5405 88.5220 15.40710798 8294



Live tracking and technical data element details for STARLINK-31662 (NORAD 59584). STARLINK-31662 can be tracked NOW for your location showing map with azimuth and elevation plus other details from your city location.







IsCatalogInMostPopularTable: catalog: 59584, numindb: 11
Update: records affected: 1



GetName: 59584 STARLINK-31662

Hit Count: updated at: Fri, 14 Jun 2024 19:54:58 GMT